Theta_e
347 346 349 352 353 354 353 353 352 351 351 351 350 349 348 346 345 344 344 343 344 346 347 345 346 344 340 344 340 340 341 342 342 343 343 345 345 345 345 344 343 344 343 342 344 342 341 340 341 343 345 344 348 348 345 342 342 340 341 340 342 341
347 346 348 351 352 353 354 352 353 353 352 351 349 348 349 349 346 347 343 345 346 344 344 345 345 343 343 341 342 340 341 342 342 342 344 343 343 341 341 342 342 344 343 344 345 349 347 344 343 341 342 345 346 344 343 343 343 340 339 341 342 348
346 347 349 352 351 352 353 353 351 351 350 348 349 350 347 347 348 345 345 344 345 345 345 345 347 345 345 343 343 341 342 342 342 344 343 342 341 340 341 344 343 345 346 345 349 340 340 340 346 346 346 347 344 343 343 343 342 342 340 341 341 347
347 348 348 349 351 352 353 352 351 350 351 350 350 348 347 346 346 346 344 345 344 346 346 349 346 345 345 344 343 343 343 342 342 342 341 344 336 342 342 342 344 347 348 348 341 338 337 338 339 343 344 341 339 340 341 341 338 341 344 341 341 341
348 348 348 347 348 350 352 350 351 350 350 349 348 346 346 348 348 347 345 345 344 346 346 346 347 348 345 344 343 339 343 342 341 340 341 343 343 342 347 344 347 348 342 341 341 344 343 343 344 344 345 344 343 344 342 343 342 343 345 346 348 342
347 347 348 348 348 349 351 349 349 349 349 348 346 344 345 347 347 348 346 346 347 347 347 348 349 347 346 346 343 340 339 340 340 339 341 344 343 345 344 344 344 344 345 347 346 349 347 346 344 345 344 346 346 346 344 343 343 345 347 347 349 344
344 346 348 347 347 350 350 350 350 349 347 346 345 344 344 345 347 348 347 349 347 345 346 346 347 348 347 347 345 342 339 341 343 342 347 346 348 349 348 348 348 350 349 348 347 347 345 345 346 341 341 341 343 343 343 343 342 342 344 344 346 343
344 345 347 346 348 348 349 350 349 349 348 345 344 344 344 347 348 347 349 349 349 347 346 346 347 348 347 348 347 348 347 345 348 348 351 351 350 349 348 348 351 349 345 345 342 344 342 340 341 343 340 340 340 341 342 341 343 344 344 345 345 347
343 344 346 347 347 347 348 350 349 347 346 345 345 344 346 348 347 347 348 348 349 349 346 347 346 346 348 347 348 349 347 346 350 349 352 350 351 350 350 348 348 344 345 343 342 343 341 341 343 342 340 338 338 339 341 342 343 342 342 343 345 347
343 342 344 347 346 346 348 347 348 347 347 347 346 347 348 346 347 345 346 348 347 347 346 344 347 346 347 347 348 350 349 350 350 350 351 352 352 350 347 345 344 342 340 343 342 343 342 340 338 338 338 338 338 340 342 342 343 342 344 345 349 348
343 344 346 344 346 347 348 347 347 347 347 346 346 346 347 346 346 347 346 348 347 347 347 347 347 346 348 346 348 348 349 351 350 350 353 352 351 349 347 344 344 344 344 344 342 342 341 339 337 336 339 338 340 342 342 343 344 345 345 345 348 348
344 344 347 345 347 347 347 347 348 347 346 347 348 346 344 346 346 347 348 347 348 347 347 348 348 348 348 346 347 346 349 350 350 351 352 351 351 349 346 344 347 348 349 346 342 341 341 338 339 337 339 337 340 340 339 341 342 344 346 347 347 349
344 347 347 346 345 347 347 347 347 347 347 347 347 345 345 346 347 348 349 347 347 347 348 348 349 349 347 345 346 347 349 351 352 353 353 351 348 348 348 346 348 348 344 343 341 340 337 339 337 338 339 336 339 337 340 340 342 344 344 344 343 344
343 345 346 346 346 346 347 346 347 347 347 347 345 343 344 346 347 346 347 347 347 347 347 348 348 349 348 347 348 348 350 350 351 354 352 351 347 347 347 347 345 343 341 340 338 339 336 336 334 335 337 337 338 341 339 340 340 342 341 341 341 340
344 344 346 346 346 345 348 346 346 346 346 346 345 345 345 347 346 346 346 346 347 347 348 348 349 349 349 347 348 350 350 350 352 352 349 349 349 349 348 344 342 342 342 339 337 337 336 338 338 336 337 340 337 336 341 339 339 340 339 339 335 332
345 344 345 346 346 347 346 348 347 345 347 347 344 346 346 346 347 346 345 346 348 348 349 349 349 349 348 350 349 350 350 351 350 351 350 351 350 347 346 343 343 344 340 337 338 337 338 337 338 337 339 339 340 339 339 338 338 336 337 336 333 330
343 343 345 345 346 347 347 347 347 346 347 347 345 346 347 345 345 347 346 343 348 349 349 349 349 349 351 352 349 350 349 351 351 351 349 348 346 345 345 341 342 342 343 338 336 336 337 336 335 337 339 340 339 339 339 338 337 336 336 333 332 329
341 344 344 344 346 345 347 345 346 346 347 345 346 345 345 345 347 345 345 345 347 349 352 351 352 352 353 351 350 349 349 349 351 350 347 347 345 344 343 343 340 340 339 338 333 335 332 331 332 336 338 337 337 338 336 337 336 332 331 331 330 328
341 344 344 345 346 346 347 346 347 345 345 344 345 345 345 345 348 347 346 347 347 352 351 352 352 352 352 349 348 347 347 348 349 346 346 342 341 341 342 341 340 339 340 338 333 334 332 331 334 335 336 335 335 337 337 336 335 330 328 327 325 324
340 342 344 344 343 342 343 342 340 342 342 342 343 343 346 345 348 345 347 347 348 351 348 350 350 351 351 349 347 347 347 347 345 346 342 341 339 339 339 338 338 337 338 336 333 331 330 332 336 336 334 336 336 335 333 332 332 330 326 323 322 321
339 341 341 339 340 340 340 340 341 339 339 342 342 344 344 346 346 345 346 346 347 348 350 350 349 349 349 345 345 345 345 344 345 342 341 341 340 339 339 339 336 337 334 333 330 330 330 335 331 332 333 333 334 334 332 331 329 327 323 317 316 318
339 340 340 340 340 340 342 340 339 339 341 341 341 340 343 346 347 345 346 345 346 347 347 348 348 349 347 346 344 342 342 341 341 340 340 339 339 337 338 337 337 336 332 329 328 328 329 332 324 321 327 328 327 330 333 331 327 325 319 315 317 318
339 339 339 340 340 340 342 345 343 342 342 339 344 344 344 345 346 345 346 347 346 347 347 346 348 346 344 344 343 342 341 341 340 339 338 336 336 335 335 334 333 332 331 330 327 328 327 327 322 326 324 329 323 323 325 326 327 324 316 315 316 316
340 339 340 342 341 343 344 344 344 344 342 341 339 341 342 344 344 343 341 343 342 341 341 343 343 342 342 341 342 341 340 339 338 337 336 334 334 333 332 331 331 330 333 327 324 323 326 326 324 324 320 317 318 323 318 313 322 324 320 315 314 315
341 342 341 342 342 342 341 342 341 341 341 339 340 338 338 338 340 339 337 337 338 337 338 339 340 340 339 339 339 338 337 337 336 337 336 332 331 328 328 328 330 328 330 328 323 324 323 324 323 323 322 322 320 311 309 311 321 317 317 314 314 315
342 339 340 341 340 338 339 338 336 334 332 333 332 333 333 335 335 333 332 334 335 336 335 334 336 337 336 336 336 336 337 337 335 334 333 331 329 327 326 326 327 327 326 328 326 323 322 322 322 321 320 318 318 312 309 310 314 312 317 315 315 314
333 334 338 339 340 337 335 335 337 337 337 335 333 335 339 339 336 333 332 330 332 333 331 332 334 335 335 335 335 336 335 334 333 331 330 328 326 326 325 325 325 324 323 325 324 319 322 321 319 320 318 315 314 314 314 312 309 315 312 312 311 312
334 334 335 337 339 337 335 336 337 339 339 337 336 337 337 334 333 333 330 327 328 330 328 330 332 332 332 333 333 332 332 331 329 328 325 325 325 325 324 324 324 323 322 321 322 318 316 318 315 314 319 316 314 315 314 315 316 313 309 307 306 311
332 334 336 336 336 338 339 338 338 338 336 338 336 333 332 331 329 331 326 325 326 328 330 330 330 330 329 329 330 330 329 328 326 324 323 323 323 322 322 322 321 320 319 319 319 317 315 314 317 315 314 314 315 313 313 314 314 313 310 309 305 308
333 335 337 336 337 338 339 340 338 337 336 334 330 329 328 325 324 328 327 327 326 327 326 326 327 327 327 327 327 327 326 325 325 323 322 322 320 320 320 319 319 319 318 317 317 317 315 315 315 315 314 315 314 313 313 312 312 312 311 312 306 305
335 336 336 336 338 338 339 339 337 337 336 333 331 328 322 321 322 325 324 325 326 325 325 324 324 325 327 327 327 326 324 324 324 323 321 319 319 318 318 317 317 317 317 316 315 316 315 316 315 313 313 312 310 311 310 309 310 310 310 310 308 305
333 335 335 337 339 338 338 338 338 337 335 333 329 326 324 321 323 327 324 323 324 324 323 322 322 323 325 325 324 323 324 323 322 321 319 319 319 317 316 316 315 315 315 316 316 316 315 313 313 312 313 312 311 311 311 310 310 310 309 308 309 307
330 334 336 338 338 338 338 338 338 337 335 333 329 328 326 323 324 324 323 322 322 321 320 320 322 323 323 323 322 323 322 321 319 319 319 317 317 316 315 314 314 314 314 314 314 315 313 314 314 312 311 312 311 311 310 311 311 310 310 310 309 307
328 333 335 339 339 338 338 338 338 334 333 333 328 325 326 326 327 325 325 323 321 321 321 322 323 323 323 323 322 323 322 320 319 318 318 317 316 315 315 313 314 314 314 313 314 314 314 314 313 313 313 311 311 310 310 311 310 310 308 308 306 306
329 333 334 335 338 338 337 338 336 333 330 329 328 327 328 326 324 324 327 324 322 321 321 321 321 321 322 322 322 321 320 319 318 318 317 315 314 314 315 314 314 314 313 314 313 313 312 313 311 311 312 311 310 310 309 309 309 309 309 308 307 306
332 334 334 336 337 337 337 337 334 329 329 328 328 328 325 324 325 326 326 324 320 320 319 319 320 320 320 321 321 320 319 317 317 316 316 314 313 314 314 313 312 312 312 312 312 312 312 313 312 312 311 310 310 308 309 309 309 309 308 309 308 307
333 334 334 336 336 336 334 333 330 328 328 327 326 325 325 323 324 325 323 320 319 320 319 319 319 320 320 320 319 318 317 317 316 315 315 314 314 314 314 313 313 312 312 313 312 311 311 311 312 311 310 310 309 308 308 310 309 309 310 310 309 308
Wind_Speed
12 14 13 12 11 12 13 16 14 14 13 12 11 10 10 10 10 10 10 9 9 6 6 6 7 6 7 5 5 5 5 4 3 3 4 4 4 3 2 1 1 1 2 2 4 6 7 6 5 6 5 7 9 8 3 4 5 4 4 5 2 1
11 14 13 10 9 10 12 13 13 13 11 12 11 10 9 7 8 7 9 7 4 4 4 4 5 6 5 7 6 5 5 4 3 3 4 3 2 1 1 1 2 2 3 6 7 7 9 9 10 8 8 10 8 6 2 4 4 5 5 5 5 7
12 13 13 11 9 10 13 11 12 12 10 11 9 8 6 7 6 7 6 5 4 4 4 5 4 4 5 8 7 6 6 5 4 4 3 2 2 1 3 4 3 5 6 8 9 2 3 4 7 12 11 9 6 3 3 4 6 5 5 4 6 9
12 13 12 10 9 10 10 10 10 10 9 9 8 6 6 5 5 6 5 4 4 4 4 5 8 9 9 7 7 7 6 6 6 5 4 6 7 6 6 8 7 7 10 8 2 2 2 0 2 1 2 3 3 4 4 4 5 5 5 3 3 9
12 12 12 10 10 9 10 9 9 9 9 8 7 6 6 5 5 6 5 4 5 4 4 5 5 5 4 5 6 7 7 7 6 6 8 4 5 6 8 5 6 8 2 1 1 2 2 2 2 2 2 3 3 4 5 4 4 5 5 5 5 6
12 13 12 10 9 9 10 9 8 8 8 8 7 6 6 6 6 5 5 5 5 5 5 5 5 4 4 4 5 5 5 5 5 5 6 4 2 1 1 1 2 2 1 2 1 1 2 2 3 2 2 2 3 3 3 3 3 4 4 4 5 7
12 12 12 11 9 9 9 9 8 8 8 8 7 7 7 6 5 5 5 5 5 5 4 4 4 4 4 4 5 5 5 6 6 5 3 2 2 1 1 1 1 1 1 2 2 2 2 1 3 4 2 3 3 4 4 4 4 4 4 4 6 8
12 12 11 10 10 9 9 8 8 8 7 7 7 7 6 6 6 6 5 5 5 4 4 4 5 4 4 3 4 4 4 4 4 4 3 2 2 1 1 1 1 2 2 2 2 3 3 3 2 3 4 3 3 3 4 4 4 5 5 3 2 10
12 13 11 10 11 9 9 8 8 8 7 8 7 7 6 7 7 6 5 5 5 4 4 4 4 4 3 3 4 4 4 4 3 3 3 1 1 1 0 1 2 2 1 3 1 3 4 4 5 3 4 5 5 5 5 5 5 6 5 5 5 10
13 13 12 11 9 9 9 9 8 8 8 8 7 7 8 6 6 6 6 5 4 3 3 3 4 3 4 4 3 3 3 3 3 3 2 2 1 1 1 1 1 3 4 3 4 4 4 3 5 3 3 6 5 5 4 4 5 5 5 4 4 8
13 12 11 11 9 9 9 9 9 8 8 8 8 7 7 6 6 5 5 5 4 3 3 3 3 3 3 4 3 3 2 3 3 3 2 2 1 1 1 2 3 4 4 5 4 4 5 5 5 5 4 4 5 4 4 4 4 5 5 5 4 4
12 12 11 11 9 9 9 9 9 8 8 8 8 7 7 6 6 5 5 5 4 4 3 2 2 3 3 3 3 2 2 2 2 2 1 1 2 2 1 3 3 2 3 4 4 4 5 4 5 5 5 6 5 5 5 5 5 5 5 6 5 5
12 12 12 11 10 9 8 8 8 8 8 8 8 7 6 6 6 5 5 5 4 4 3 3 3 3 3 3 2 2 2 2 2 2 2 1 2 1 1 1 2 2 3 4 4 5 5 4 4 4 4 6 5 6 5 5 5 6 6 6 6 6
12 13 12 10 9 9 8 8 7 7 8 8 6 6 6 6 5 5 5 5 5 4 4 3 3 3 3 2 2 2 2 2 2 2 2 1 1 2 2 3 2 2 3 3 4 5 5 5 5 5 5 5 4 5 5 5 5 6 6 7 7 7
12 13 11 10 10 9 8 7 7 7 7 7 6 6 6 5 6 5 6 5 5 4 4 3 3 3 3 2 3 3 2 2 2 1 1 2 2 2 3 3 4 4 4 3 5 4 5 5 5 5 5 4 5 5 5 5 6 6 6 7 7 8
14 13 12 10 9 9 9 8 7 7 8 8 7 6 6 5 5 5 5 5 5 4 4 4 4 3 2 2 2 2 2 2 2 1 2 2 1 3 3 3 4 5 4 4 4 5 5 4 4 4 3 3 3 4 4 5 6 7 6 6 7 7
15 14 13 11 10 9 9 9 9 9 9 8 7 6 6 5 5 5 5 5 5 4 4 4 4 2 2 2 2 2 2 2 1 1 2 2 2 3 3 3 3 4 4 4 3 5 5 4 4 2 2 3 4 4 5 6 5 6 5 7 7 7
13 12 12 11 11 10 9 8 8 8 8 7 7 6 5 5 5 5 4 4 5 4 3 3 3 3 2 1 2 2 2 2 1 2 2 2 2 3 4 4 3 3 4 4 4 4 5 4 4 2 3 4 4 4 5 5 5 5 6 7 7 7
12 12 12 11 11 10 9 8 7 7 8 7 6 5 5 5 5 5 5 5 5 4 3 4 3 3 2 2 2 3 2 2 2 2 2 1 3 4 4 4 5 4 2 2 4 3 4 4 2 0 2 4 4 6 6 5 5 6 7 7 7 7
12 12 10 10 10 9 9 8 9 8 8 8 7 6 6 5 5 5 5 5 5 4 4 4 4 3 3 2 3 3 3 2 2 2 2 3 3 3 4 4 4 5 3 2 4 4 4 4 1 2 4 5 7 7 7 6 6 7 7 8 7 7
12 13 10 10 9 9 9 9 8 8 8 8 7 6 5 4 5 4 5 5 5 4 5 4 4 4 4 3 4 4 3 3 2 3 3 4 3 4 3 3 3 2 3 2 5 6 6 5 2 4 3 6 7 6 7 6 7 8 8 8 7 7
12 12 11 10 10 9 9 8 8 8 7 7 7 6 5 4 4 4 4 5 5 4 5 5 4 4 4 4 5 4 3 3 3 4 3 3 4 3 4 3 3 1 3 4 5 7 7 7 1 2 3 6 5 5 6 6 7 9 9 8 7 7
11 12 10 10 10 9 8 7 7 7 5 6 4 4 6 4 3 3 2 2 2 4 5 5 5 5 4 4 4 4 4 3 3 2 2 3 3 4 4 3 4 3 2 4 6 6 8 9 4 2 1 4 5 6 5 6 7 8 9 9 7 8
12 10 9 10 9 10 9 7 7 8 8 7 6 5 5 4 4 4 3 3 3 3 3 5 5 5 5 4 4 3 3 3 3 3 3 3 4 4 4 4 4 3 2 3 5 7 8 9 7 5 3 2 2 3 6 5 4 7 8 11 9 9
10 8 10 10 10 9 8 7 6 6 6 6 6 6 6 4 4 4 3 4 3 2 2 5 5 5 6 6 5 4 4 5 4 3 3 3 4 5 4 4 4 4 5 3 5 5 7 8 10 9 6 2 3 4 4 3 2 7 5 7 9 8
9 8 10 13 14 10 8 8 9 9 9 8 8 7 7 7 6 5 5 4 4 4 3 5 5 6 6 5 6 5 4 4 3 3 4 4 4 4 6 6 5 4 5 5 3 4 5 6 8 10 10 9 7 5 3 2 5 5 5 7 7 8
10 7 9 10 14 11 13 12 12 11 10 10 9 7 5 5 6 6 4 5 4 4 6 6 5 6 6 6 5 5 5 4 4 4 5 5 5 5 5 6 5 6 5 5 4 5 4 5 6 8 8 9 9 7 6 4 3 3 5 6 6 6
10 12 12 13 14 12 13 12 12 11 10 10 8 7 7 7 8 6 5 4 5 4 6 5 4 6 6 6 6 6 6 5 5 5 5 6 6 5 5 6 6 6 6 6 6 5 6 5 5 6 5 6 7 7 7 8 6 5 3 3 5 6
14 13 11 16 14 13 12 12 11 9 9 6 8 8 9 9 8 4 6 4 4 5 6 5 5 6 6 6 5 6 6 6 6 6 6 6 7 7 8 7 7 7 7 7 6 6 6 7 6 5 4 5 5 5 6 6 5 6 4 2 4 3
12 11 9 14 13 13 14 12 11 12 11 10 9 8 8 10 10 6 6 5 4 5 5 6 6 6 6 6 6 6 7 8 7 7 7 7 8 8 7 8 8 8 8 8 7 8 8 7 7 6 6 4 4 4 4 5 6 4 4 4 4 4
14 12 13 15 15 15 13 12 12 12 12 13 12 10 8 10 9 6 7 7 6 5 4 6 5 5 6 6 6 6 7 7 7 7 7 7 6 6 6 7 8 9 9 9 8 9 9 8 7 8 8 7 7 7 6 7 6 5 5 5 3 4
11 13 14 14 14 14 12 12 12 12 12 12 12 10 10 10 11 9 9 8 6 6 6 5 5 5 6 6 6 6 7 8 7 7 7 6 6 6 6 6 7 7 7 8 8 8 8 8 9 8 8 7 7 7 7 6 5 6 6 5 4 4
10 12 14 15 15 15 13 13 11 10 10 8 8 10 10 10 10 9 6 6 7 7 6 6 6 6 7 7 6 7 6 6 7 7 7 7 7 7 7 7 8 8 8 9 8 8 8 9 8 8 7 7 7 7 7 6 6 6 6 5 6 5
8 13 11 10 14 15 13 12 10 10 10 7 10 11 9 9 8 8 6 7 6 6 6 7 7 7 7 7 7 6 7 8 8 8 8 8 8 7 8 8 8 8 9 8 9 9 9 9 9 9 7 7 7 7 7 7 7 7 7 7 7 7
14 15 16 15 13 13 11 11 9 10 11 8 11 11 7 6 7 7 6 7 6 6 7 7 7 7 7 8 8 8 8 8 8 8 7 7 7 8 7 7 8 8 8 8 9 8 9 9 9 9 9 7 7 7 7 7 7 7 7 7 7 6
17 14 14 13 12 11 10 8 10 10 10 10 7 9 7 6 6 6 7 7 8 7 7 7 7 8 8 8 8 9 8 8 8 7 7 8 8 7 8 8 8 8 9 7 9 10 9 9 9 9 8 8 7 8 7 7 7 6 6 6 6 6
15 13 12 10 11 10 9 12 12 13 12 13 12 12 9 9 9 8 7 7 7 8 8 7 7 7 8 8 8 8 8 8 7 7 8 8 8 8 8 8 8 8 8 8 8 9 8 8 8 7 7 8 7 7 7 6 6 5 5 5 5 6
Wind_Direction
171 170 172 168 168 164 155 153 152 146 145 141 139 135 128 130 131 127 133 132 164 154 128 134 166 129 155 151 132 142 152 132 120 109 97 85 73 65 66 77 96 173 210 211 225 194 169 175 179 193 206 226 228 235 263 306 303 301 287 310 258 321
173 171 169 169 171 162 159 166 164 157 153 146 145 144 155 145 147 133 127 158 147 132 138 121 113 143 136 142 153 152 154 155 137 123 100 96 79 6 325 323 285 241 241 235 235 212 167 168 178 185 197 212 222 247 240 281 295 300 316 299 304 86
171 171 167 172 169 165 166 168 166 156 148 153 153 169 153 160 152 148 155 137 143 138 136 122 117 102 106 82 119 155 153 158 149 126 137 149 189 222 261 252 249 249 238 229 228 213 237 172 168 185 195 205 241 261 297 281 283 289 302 349 311 74
173 171 173 172 173 170 170 171 170 159 158 154 164 166 158 161 152 140 137 140 137 133 133 110 116 138 147 147 135 151 153 150 159 169 191 201 182 199 224 222 215 231 226 225 244 241 273 202 302 242 230 278 294 298 283 288 301 311 308 324 354 57
173 172 179 174 173 173 170 169 170 160 163 159 158 158 161 154 147 149 142 150 140 153 159 140 151 155 153 148 146 149 169 174 168 160 198 195 196 156 209 191 186 209 279 293 293 349 297 321 289 296 299 295 303 305 303 306 307 306 311 308 63 69
175 175 182 178 179 166 168 168 167 167 163 162 156 164 163 157 153 153 152 143 145 157 159 148 148 141 146 152 156 151 157 153 162 153 189 186 157 189 218 260 302 315 248 263 251 271 321 308 304 297 310 317 312 304 309 313 319 313 311 319 94 77
175 176 181 183 176 173 176 169 168 169 168 162 155 166 162 156 149 152 151 152 163 161 157 149 149 161 163 170 150 157 150 158 164 162 170 157 124 176 260 252 256 257 294 301 311 305 267 286 324 316 339 332 340 321 327 324 327 323 329 317 79 70
177 178 180 183 174 182 173 170 168 163 174 152 154 168 162 155 145 159 160 166 173 170 162 155 159 165 167 164 159 148 159 154 153 146 146 173 174 151 235 305 336 313 303 303 332 330 324 327 327 331 330 319 313 330 329 330 331 332 319 334 349 82
176 181 179 181 179 182 171 169 168 177 163 153 166 165 160 152 158 155 167 167 184 182 168 159 158 154 169 162 155 164 164 152 156 130 150 152 173 158 48 351 348 302 297 321 333 323 336 353 311 343 326 326 345 345 351 337 342 327 337 339 329 76
180 182 177 183 182 176 173 170 172 172 158 162 164 162 156 164 161 163 162 177 180 196 170 161 153 151 167 165 165 167 163 152 138 133 168 161 117 91 34 38 315 321 344 332 350 7 324 324 311 323 7 337 356 350 343 346 339 340 348 340 0 82
181 189 175 185 181 174 174 175 171 170 171 168 157 162 170 166 168 164 155 163 182 178 175 167 158 168 173 182 187 184 177 156 151 139 182 120 103 71 61 34 14 4 2 348 349 344 326 336 337 345 356 352 0 343 357 357 353 357 356 360 1 69
181 188 178 183 175 174 175 170 169 173 172 161 157 166 171 166 168 155 152 161 168 180 186 163 172 179 189 199 198 196 175 180 132 160 125 101 91 63 58 60 35 25 2 338 336 341 330 344 336 358 339 10 2 352 7 7 8 17 19 21 24 20
184 186 186 181 174 174 173 170 173 174 164 160 164 168 172 171 164 154 154 159 164 170 191 183 180 195 201 200 191 193 175 145 153 102 104 65 69 111 87 92 88 38 360 342 354 349 342 337 337 1 359 6 359 11 13 20 25 32 35 35 29 35
184 183 188 178 172 173 170 170 170 168 160 165 165 174 172 168 162 159 152 158 169 169 191 193 188 185 210 189 178 183 151 138 121 125 120 152 112 54 45 33 25 30 25 358 0 354 344 347 347 351 17 355 18 22 20 38 39 48 40 41 40 35
183 182 180 172 169 172 167 164 166 165 165 166 166 178 169 167 170 163 159 157 164 171 191 198 203 202 201 173 166 148 156 144 122 134 120 68 18 66 42 24 22 4 21 18 356 358 349 346 345 350 8 4 12 39 44 41 49 45 58 57 51 45
180 179 176 165 168 170 166 172 166 163 164 167 169 173 171 174 173 163 164 161 164 174 192 197 202 197 177 195 160 140 143 115 134 117 69 66 0 53 46 28 31 8 10 12 7 356 344 342 337 356 359 19 42 44 55 62 59 54 40 47 55 50
180 176 169 166 170 175 175 175 171 165 163 168 174 171 172 175 173 169 166 168 161 177 189 188 192 169 186 196 146 149 128 137 138 89 87 77 48 35 36 29 37 12 6 1 9 2 335 339 335 353 48 55 53 54 49 52 52 58 57 54 45 48
176 176 171 168 180 180 177 170 169 164 162 167 167 170 170 175 167 167 168 165 165 171 186 177 179 168 195 191 145 137 120 133 107 98 99 81 55 44 36 13 15 9 2 0 15 1 342 348 331 352 66 61 52 56 74 70 65 57 55 49 45 43
173 172 165 172 176 174 162 158 147 154 156 162 165 167 175 177 174 170 171 166 170 170 178 174 165 169 175 180 151 132 130 113 109 94 88 80 64 48 27 25 3 351 354 32 12 12 347 327 323 35 113 98 76 74 64 61 55 57 57 47 45 37
175 177 168 172 169 165 162 160 158 159 165 169 171 174 188 183 176 182 167 172 175 180 164 166 167 155 162 159 138 128 116 116 85 71 48 44 26 39 17 8 9 352 344 68 37 4 5 331 289 116 113 88 87 83 72 61 56 54 52 44 39 34
172 175 172 170 173 169 168 167 167 173 170 171 172 177 184 184 193 180 177 176 181 176 166 153 154 145 156 149 135 122 120 105 82 61 47 50 40 30 11 1 336 25 347 39 38 9 12 321 301 134 121 123 121 102 86 64 57 63 56 44 33 40
170 174 172 173 173 176 177 174 173 171 171 166 167 178 174 176 191 177 191 181 175 170 139 149 139 142 151 147 139 129 116 82 65 60 49 49 37 31 16 9 325 143 45 45 53 19 7 324 92 342 164 146 137 110 91 78 70 57 52 46 45 46
169 170 171 172 175 177 170 160 164 144 151 160 161 166 169 151 153 141 186 176 152 127 136 132 136 136 139 130 122 113 98 79 52 42 49 43 34 29 26 15 6 343 119 85 72 39 26 7 2 338 325 197 146 160 136 128 97 76 63 46 46 49
159 160 163 172 167 161 151 148 160 162 170 173 161 145 134 147 132 146 157 120 74 64 125 123 129 130 119 107 102 95 82 70 57 38 31 42 42 45 41 32 25 21 329 89 61 56 35 25 17 326 185 17 107 265 148 90 86 98 85 63 47 50
149 155 166 143 140 134 145 159 150 144 142 146 146 154 153 135 141 122 106 79 97 105 100 96 98 102 101 92 83 83 85 86 72 47 44 57 57 46 47 50 45 41 25 37 90 77 55 35 34 22 4 214 174 102 42 64 143 84 65 71 63 55
139 127 142 148 144 145 143 142 153 153 156 162 160 167 164 155 159 151 113 94 69 73 76 81 86 86 86 93 90 88 90 88 77 67 66 68 71 73 50 53 42 45 54 33 61 107 93 63 49 39 45 50 21 28 26 3 261 122 112 79 76 63
112 123 139 157 163 157 159 165 177 176 176 175 171 168 156 144 133 100 76 75 59 55 70 65 76 91 93 92 93 85 81 80 81 88 79 77 76 64 60 48 48 50 46 47 56 79 77 106 87 62 59 52 52 43 32 349 62 185 141 97 68 58
127 166 170 165 172 168 166 172 178 182 179 181 174 144 125 111 107 113 111 109 102 83 84 81 89 93 96 92 88 89 87 84 86 81 86 81 74 69 72 65 55 56 53 51 47 65 71 51 68 73 61 77 74 61 48 49 22 18 50 88 86 93
164 172 169 164 169 170 171 175 176 169 170 156 134 132 133 125 121 110 93 98 93 95 88 87 83 83 82 88 94 93 90 90 88 88 87 84 76 70 63 60 59 57 58 59 56 61 67 62 59 69 91 82 76 73 73 59 50 35 24 96 93 64
153 167 164 162 169 176 176 175 170 171 167 143 129 130 130 121 120 111 126 139 123 101 108 99 83 82 85 92 95 99 98 93 89 85 83 83 81 73 68 65 61 63 65 70 64 60 62 66 66 59 54 56 74 78 69 62 48 47 63 35 50 48
164 168 166 168 173 174 171 171 169 167 159 146 142 141 133 127 127 131 147 146 126 121 112 99 98 93 96 95 92 91 94 95 93 93 90 86 78 78 76 76 72 70 66 68 71 70 69 67 68 64 60 59 59 51 47 50 37 37 36 35 41 51
169 163 170 174 174 175 171 176 173 162 158 156 154 155 142 132 147 155 156 140 130 123 109 107 110 108 102 97 96 99 100 100 97 93 89 85 86 83 81 78 75 74 72 70 73 73 73 74 73 74 66 64 62 58 54 51 45 36 31 31 16 30
177 167 172 173 175 173 175 177 172 151 142 144 154 153 143 135 146 154 150 140 135 124 127 122 117 111 105 108 112 112 109 103 99 91 92 92 86 83 82 79 78 76 73 71 67 72 73 67 68 70 73 65 64 61 60 54 43 40 38 34 24 25
180 185 169 173 173 172 174 172 161 143 138 167 151 151 139 145 150 159 146 135 131 132 126 121 118 121 130 131 119 105 102 99 98 97 92 86 84 84 85 87 84 81 79 77 78 78 77 76 72 70 70 71 65 65 59 51 48 46 40 36 34 21
195 196 170 172 174 169 166 161 147 141 156 143 147 146 138 138 140 149 144 130 123 118 114 117 116 125 128 123 113 111 108 104 100 99 96 93 93 91 91 92 86 84 83 81 82 81 79 78 75 73 71 72 73 65 60 52 49 45 44 40 32 20
191 188 175 171 168 159 158 141 120 128 137 141 130 134 122 131 144 142 135 128 118 112 113 115 118 126 126 122 119 117 112 106 105 102 100 101 101 99 97 96 94 92 92 92 92 89 88 83 79 78 76 75 73 67 59 53 52 48 44 38 37 29
170 161 163 162 155 147 136 134 145 148 149 148 146 145 145 147 147 142 130 115 115 116 119 117 124 128 123 120 122 118 112 109 105 101 100 102 103 103 102 98 99 100 97 94 91 87 85 85 85 81 77 74 73 72 66 60 53 51 44 39 41 39